• In Hungary
  • List of Countries
  • For 7 days
  • Water Temperature
  • Satellite Maps
  • Weather Map
  • News
  • Weather Widgets
  • user-avatar
    Login

    Hourly Weather Pszczolki

    Today, 20 August, Monday

    Time Temperature Precipitation Wind Pressure Humidity
    00:00 +19°C° 0 mm 2 mps 760 mmHg 75%
    01:00 +19°C° 0 mm 2 mps 760 mmHg 72%
    02:00 +19°C° 0 mm 3 mps 759 mmHg 69%
    03:00 +19°C° 0 mm 3 mps 759 mmHg 66%
    04:00 +19°C° 0 mm 3 mps 758 mmHg 63%
    05:00 +20°C° 0 mm 4 mps 758 mmHg 61%
    06:00 +21°C° 0 mm 4 mps 758 mmHg 60%
    07:00 +22°C° 0 mm 4 mps 758 mmHg 58%
    08:00 +25°C° 0 mm 5 mps 758 mmHg 55%
    09:00 +26°C° 0 mm 5 mps 757 mmHg 52%
    10:00 +28°C° 0 mm 5 mps 757 mmHg 49%
    11:00 +28°C° 0 mm 5 mps 757 mmHg 51%
    12:00 +28°C° 0 mm 6 mps 757 mmHg 52%
    13:00 +28°C° 0 mm 6 mps 757 mmHg 54%
    14:00 +27°C° 0.1 mm 6 mps 757 mmHg 58%
    15:00 +26°C° 0.1 mm 6 mps 757 mmHg 63%
    16:00 +24°C° 0.1 mm 6 mps 757 mmHg 68%
    17:00 +23°C° 0 mm 6 mps 757 mmHg 70%
    18:00 +22°C° 0 mm 6 mps 757 mmHg 73%
    19:00 +21°C° 0 mm 6 mps 757 mmHg 76%
    20:00 +20°C° 0 mm 5 mps 758 mmHg 76%
    21:00 +19°C° 0 mm 5 mps 758 mmHg 77%
    22:00 +17°C° 0 mm 5 mps 758 mmHg 77%
    23:00 +17°C° 0 mm 5 mps 758 mmHg 76%

    Tomorrow, 21 August, Tuesday

    Time Temperature Precipitation Wind Pressure Humidity
    00:00 +16°C° 0 mm 5 mps 758 mmHg 75%
    01:00 +16°C° 0 mm 5 mps 758 mmHg 75%
    02:00 +16°C° 0 mm 5 mps 759 mmHg 76%
    03:00 +15°C° 0 mm 4 mps 759 mmHg 77%
    04:00 +15°C° 0 mm 4 mps 759 mmHg 78%
    05:00 +16°C° 0 mm 5 mps 760 mmHg 74%
    06:00 +17°C° 0 mm 5 mps 760 mmHg 70%
    07:00 +19°C° 0 mm 5 mps 761 mmHg 67%
    08:00 +20°C° 0 mm 5 mps 761 mmHg 62%
    09:00 +21°C° 0 mm 5 mps 762 mmHg 57%
    10:00 +22°C° 0 mm 4 mps 762 mmHg 53%
    11:00 +23°C° 0 mm 4 mps 762 mmHg 51%
    12:00 +23°C° 0 mm 4 mps 762 mmHg 48%
    13:00 +25°C° 0 mm 4 mps 762 mmHg 46%
    14:00 +23°C° 0 mm 4 mps 763 mmHg 48%
    15:00 +23°C° 0 mm 4 mps 763 mmHg 49%
    16:00 +22°C° 0 mm 3 mps 763 mmHg 51%
    17:00 +21°C° 0 mm 3 mps 763 mmHg 58%
    18:00 +19°C° 0 mm 3 mps 763 mmHg 65%
    19:00 +18°C° 0 mm 2 mps 763 mmHg 72%
    20:00 +17°C° 0 mm 2 mps 764 mmHg 76%
    21:00 +16°C° 0 mm 2 mps 764 mmHg 79%
    22:00 +15°C° 0 mm 1 mps 764 mmHg 83%
    23:00 +15°C° 0 mm 1 mps 764 mmHg 84%

    Day after tomorrow, 22 August, Wednesday

    Time Temperature Precipitation Wind Pressure Humidity
    00:00 +15°C° 0 mm 1 mps 764 mmHg 86%
    01:00 +14°C° 0 mm 1 mps 765 mmHg 87%
    02:00 +14°C° 0 mm 1 mps 765 mmHg 88%
    03:00 +14°C° 0 mm 2 mps 765 mmHg 89%
    04:00 +14°C° 0 mm 2 mps 765 mmHg 90%
    05:00 +15°C° 0 mm 2 mps 765 mmHg 84%
    06:00 +16°C° 0 mm 2 mps 765 mmHg 79%
    07:00 +17°C° 0 mm 3 mps 765 mmHg 74%
    08:00 +19°C° 0 mm 3 mps 765 mmHg 67%
    09:00 +20°C° 0 mm 3 mps 765 mmHg 61%
    10:00 +22°C° 0 mm 3 mps 765 mmHg 54%
    11:00 +24°C° 0 mm 3 mps 764 mmHg 51%
    12:00 +25°C° 0 mm 3 mps 764 mmHg 49%
    13:00 +26°C° 0 mm 3 mps 764 mmHg 46%
    14:00 +26°C° 0 mm 3 mps 763 mmHg 46%
    15:00 +26°C° 0 mm 3 mps 763 mmHg 46%
    16:00 +26°C° 0 mm 3 mps 762 mmHg 46%
    17:00 +25°C° 0 mm 3 mps 762 mmHg 52%
    18:00 +22°C° 0 mm 3 mps 762 mmHg 57%
    19:00 +21°C° 0 mm 3 mps 762 mmHg 62%
    20:00 +20°C° 0 mm 4 mps 762 mmHg 63%
    21:00 +20°C° 0 mm 4 mps 762 mmHg 63%
    22:00 +19°C° 0 mm 4 mps 762 mmHg 63%
    23:00 +19°C° 0 mm 4 mps 761 mmHg 63%

    23 August, Thursday

    Time Temperature Precipitation Wind Pressure Humidity
    00:00 +18°C° 0 mm 4 mps 761 mmHg 62%
    01:00 +18°C° 0 mm 4 mps 761 mmHg 61%
    02:00 +18°C° 0 mm 4 mps 761 mmHg 62%
    03:00 +18°C° 0 mm 4 mps 760 mmHg 62%
    04:00 +18°C° 0 mm 4 mps 760 mmHg 62%
    05:00 +19°C° 0 mm 4 mps 760 mmHg 63%
    06:00 +19°C° 0 mm 4 mps 760 mmHg 64%
    07:00 +20°C° 0 mm 4 mps 759 mmHg 65%
    08:00 +22°C° 0 mm 4 mps 759 mmHg 61%
    09:00 +25°C° 0 mm 5 mps 759 mmHg 58%
    10:00 +26°C° 0 mm 5 mps 759 mmHg 54%
    11:00 +27°C° 0 mm 5 mps 759 mmHg 52%
    12:00 +27°C° 0 mm 5 mps 758 mmHg 50%
    13:00 +28°C° 0 mm 4 mps 758 mmHg 49%
    14:00 +28°C° 0 mm 4 mps 758 mmHg 49%
    15:00 +28°C° 0 mm 4 mps 757 mmHg 50%
    16:00 +28°C° 0 mm 4 mps 757 mmHg 50%
    17:00 +27°C° 0 mm 3 mps 757 mmHg 55%
    18:00 +26°C° 0 mm 3 mps 757 mmHg 59%
    19:00 +25°C° 0 mm 3 mps 756 mmHg 63%
    20:00 +24°C° 0 mm 3 mps 756 mmHg 65%
    21:00 +24°C° 0 mm 3 mps 756 mmHg 67%
    22:00 +22°C° 0 mm 4 mps 756 mmHg 69%
    23:00 +22°C° 0.2 mm 4 mps 756 mmHg 68%

    24 August, Friday

    Time Temperature Precipitation Wind Pressure Humidity
    00:00 +22°C° 0.2 mm 4 mps 755 mmHg 68%
    01:00 +22°C° 0.2 mm 3 mps 755 mmHg 67%
    02:00 +21°C° 0.1 mm 3 mps 754 mmHg 71%
    03:00 +20°C° 0.1 mm 3 mps 754 mmHg 74%
    04:00 +20°C° 0.1 mm 3 mps 754 mmHg 77%
    05:00 +21°C° 0.1 mm 3 mps 754 mmHg 77%
    06:00 +21°C° 0.1 mm 3 mps 753 mmHg 76%
    07:00 +22°C° 0.1 mm 3 mps 753 mmHg 76%
    08:00 +25°C° 0.1 mm 3 mps 753 mmHg 71%
    09:00 +27°C° 0.1 mm 3 mps 753 mmHg 66%
    10:00 +28°C° 0.1 mm 2 mps 753 mmHg 61%
    11:00 +28°C° 0.8 mm 3 mps 753 mmHg 60%
    12:00 +28°C° 0.8 mm 3 mps 753 mmHg 60%
    13:00 +28°C° 0.8 mm 3 mps 753 mmHg 60%
    14:00 +27°C° 1.5 mm 3 mps 753 mmHg 67%
    15:00 +25°C° 1.5 mm 4 mps 753 mmHg 74%
    16:00 +23°C° 1.5 mm 4 mps 753 mmHg 82%
    17:00 +22°C° 2.3 mm 4 mps 753 mmHg 85%
    18:00 +21°C° 2.3 mm 3 mps 753 mmHg 88%
    19:00 +20°C° 2.3 mm 3 mps 754 mmHg 92%
    20:00 +19°C° 0.3 mm 3 mps 754 mmHg 91%
    21:00 +19°C° 0.3 mm 3 mps 754 mmHg 90%
    22:00 +18°C° 0.3 mm 3 mps 754 mmHg 90%
    23:00 +18°C° 0 mm 3 mps 754 mmHg 89%

    25 August, Saturday

    Time Temperature Precipitation Wind Pressure Humidity
    00:00 +18°C° 0 mm 3 mps 754 mmHg 89%
    01:00 +17°C° 0 mm 3 mps 755 mmHg 89%
    02:00 +17°C° 0 mm 3 mps 755 mmHg 88%
    03:00 +17°C° 0 mm 3 mps 755 mmHg 87%
    04:00 +17°C° 0 mm 3 mps 755 mmHg 87%
    05:00 +17°C° 0.1 mm 3 mps 755 mmHg 86%
    06:00 +17°C° 0.1 mm 3 mps 755 mmHg 85%
    07:00 +17°C° 0.1 mm 3 mps 756 mmHg 84%
    08:00 +15°C° 0.5 mm 4 mps 756 mmHg 85%
    09:00 +15°C° 0.5 mm 4 mps 756 mmHg 86%
    10:00 +15°C° 0.5 mm 4 mps 757 mmHg 87%
    11:00 +15°C° 0.8 mm 4 mps 757 mmHg 86%
    12:00 +16°C° 0.8 mm 3 mps 757 mmHg 85%
    13:00 +16°C° 0.8 mm 3 mps 757 mmHg 85%
    14:00 +16°C° 0.3 mm 3 mps 757 mmHg 80%
    15:00 +17°C° 0.3 mm 2 mps 757 mmHg 75%
    16:00 +18°C° 0.3 mm 2 mps 757 mmHg 70%
    17:00 +17°C° 0 mm 2 mps 757 mmHg 72%
    18:00 +16°C° 0 mm 2 mps 757 mmHg 74%
    19:00 +16°C° 0 mm 1 mps 757 mmHg 77%
    20:00 +15°C° 0 mm 1 mps 757 mmHg 77%
    21:00 +15°C° 0 mm 1 mps 758 mmHg 78%
    22:00 +14°C° 0 mm 1 mps 758 mmHg 79%
    23:00 +14°C° 0 mm 2 mps 758 mmHg 80%
    Show more